KC1BRV Weather Reports


time (UTC)temp
C
wind
direction
speed
KPH
gust
KPH
rain 1hr
cm
rain 24hr
cm
rain mn
cm
humidity
%
barometer
mb
20260505012152 12 105 0.0 1.6 0.00 0.00 0.00 72 1012.5
20260505011652 12 99 0.0 3.2 0.00 0.00 0.00 71 1012.4
20260505011150 12 85 0.0 3.2 0.00 0.00 0.00 71 1012.5
20260505010645 12 118 1.6 4.8 0.00 0.00 0.00 71 1012.2
20260505010142 12 112 1.6 3.2 0.00 0.00 0.00 71 1012.2
20260505005638 12 91 1.6 3.2 0.00 0.00 0.00 71 1012.1
20260505005136 12 100 0.0 3.2 0.00 0.00 0.00 71 1012.1
20260505004633 12 79 0.0 3.2 0.00 0.00 0.00 70 1011.9
20260505004129 12 93 0.0 11.3 0.00 0.00 0.00 70 1011.8
20260505003627 12 132 1.6 3.2 0.00 0.00 0.00 69 1011.8
20260505003124 12 63 0.0 4.8 0.00 0.00 0.00 68 1011.7
20260505002619 12 137 0.0 1.6 0.00 0.00 0.00 68 1011.8
20260505002118 12 97 0.0 3.2 0.00 0.00 0.00 67 1011.8
20260505001615 13 92 0.0 0.0 0.00 0.00 0.00 66 1011.6
20260505001113 13 89 1.6 3.2 0.00 0.00 0.00 65 1011.3
20260505000610 13 83 0.0 3.2 0.00 0.00 0.00 64 1011.3
20260505000107 13 111 0.0 0.0 0.00 0.00 0.00 63 1011.4
20260504235603 13 69 0.0 3.2 0.00 0.00 0.00 63 1011.1
20260504235100 13 105 0.0 0.0 0.00 0.00 0.00 62 1011.2
20260504234557 13 121 3.2 4.8 0.00 0.00 0.00 61 1011.0
20260504234054 13 90 0.0 9.7 0.00 0.00 0.00 59 1011.1
20260504233549 13 110 0.0 6.4 0.00 0.00 0.00 58 1011.0
20260504233047 14 54 0.0 1.6 0.00 0.00 0.00 57 1011.1
20260504232544 14 166 4.8 6.4 0.00 0.00 0.00 56 1011.0
20260504232041 15 177 3.2 6.4 0.00 0.00 0.00 55 1010.9
20260504231537 15 308 0.0 3.2 0.00 0.00 0.00 54 1010.8
20260504231033 15 229 0.0 4.8 0.00 0.00 0.00 53 1010.7
20260504230530 15 96 0.0 1.6 0.00 0.00 0.00 51 1010.8
20260504230029 15 137 1.6 3.2 0.00 0.00 0.00 51 1010.8
20260504225526 15 107 0.0 3.2 0.00 0.00 0.00 50 1010.8
20260504225023 16 85 1.6 3.2 0.00 0.00 0.00 50 1010.9
20260504224519 16 90 0.0 1.6 0.00 0.00 0.00 49 1010.9
20260504224017 16 129 1.6 4.8 0.00 0.00 0.00 48 1010.7
20260504223513 16 85 1.6 1.6 0.00 0.00 0.00 47 1010.7
20260504223009 16 277 1.6 6.4 0.00 0.00 0.00 46 1010.5
20260504222507 16 125 1.6 4.8 0.00 0.00 0.00 45 1010.3
20260504222004 16 101 0.0 6.4 0.00 0.00 0.00 45 1010.3
20260504221501 17 102 1.6 6.4 0.00 0.00 0.00 44 1010.4
20260504220957 17 130 8.0 12.9 0.00 0.00 0.00 44 1010.5
20260504220454 17 6 1.6 24.1 0.00 0.00 0.00 43 1010.4
20260504215951 17 95 1.6 3.2 0.00 0.00 0.00 44 1010.4
20260504215447 17 255 1.6 4.8 0.00 0.00 0.00 44 1010.4
20260504214945 17 42 1.6 3.2 0.00 0.00 0.00 43 1010.5
20260504214441 17 62 3.2 14.5 0.00 0.00 0.00 42 1010.4
20260504213937 17 119 0.0 4.8 0.00 0.00 0.00 43 1010.4
20260504213433 17 168 3.2 11.3 0.00 0.00 0.00 42 1010.5
20260504212932 18 74 0.0 6.4 0.00 0.00 0.00 41 1010.5
20260504212426 18 8 3.2 6.4 0.00 0.00 0.00 42 1010.3
20260504211925 18 80 0.0 4.8 0.00 0.00 0.00 42 1010.3
20260504211420 18 115 1.6 4.8 0.00 0.00 0.00 42 1010.4
20260504210918 18 96 1.6 4.8 0.00 0.00 0.00 43 1010.5
20260504210415 18 65 8.0 12.9 0.00 0.00 0.00 42 1010.3
20260504205912 18 52 1.6 12.9 0.00 0.00 0.00 41 1010.2
20260504205410 18 195 12.9 24.1 0.00 0.00 0.00 41 1010.0
20260504204907 18 350 11.3 22.5 0.00 0.00 0.00 41 1010.2
20260504204406 18 103 3.2 4.8 0.00 0.00 0.00 41 1010.2
20260504203905 18 318 3.2 11.3 0.00 0.00 0.00 41 1010.0
20260504203401 18 277 4.8 11.3 0.00 0.00 0.00 40 1010.0
20260504202857 19 102 3.2 6.4 0.00 0.00 0.00 40 1010.4
20260504202354 19 94 0.0 4.8 0.00 0.00 0.00 40 1010.0
20260504201851 20 137 0.0 9.7 0.00 0.00 0.00 39 1010.1
20260504201348 20 123 3.2 14.5 0.00 0.00 0.00 39 1010.0
20260504200846 20 57 1.6 6.4 0.00 0.00 0.00 38 1010.0
20260504200342 19 312 1.6 6.4 0.00 0.00 0.00 38 1010.2
20260504195839 19 114 3.2 4.8 0.00 0.00 0.00 38 1010.1
20260504195335 19 298 3.2 11.3 0.00 0.00 0.00 37 1009.9
20260504194832 19 321 4.8 6.4 0.00 0.00 0.00 38 1010.1
20260504194327 20 54 3.2 6.4 0.00 0.00 0.00 37 1010.1
20260504193823 20 50 3.2 14.5 0.00 0.00 0.00 39 1010.0
20260504193321 20 94 6.4 9.7 0.00 0.00 0.00 36 1010.1
20260504192820 20 154 0.0 6.4 0.00 0.00 0.00 37 1010.2
20260504192317 20 57 3.2 9.7 0.00 0.00 0.00 35 1010.1
20260504191815 20 177 4.8 14.5 0.00 0.00 0.00 36 1010.3
20260504191313 20 84 0.0 12.9 0.00 0.00 0.00 36 1010.2
20260504190809 19 189 6.4 17.7 0.00 0.00 0.00 36 1010.2
20260504190304 19 87 3.2 4.8 0.00 0.00 0.00 34 1010.2
20260504185801 20 17 1.6 11.3 0.00 0.00 0.00 34 1010.2
20260504185258 20 104 1.6 14.5 0.00 0.00 0.00 34 1010.3
20260504184754 20 134 4.8 16.1 0.00 0.00 0.00 33 1010.4
20260504184250 20 162 6.4 9.7 0.00 0.00 0.00 33 1010.6
20260504183746 20 77 4.8 11.3 0.00 0.00 0.00 32 1010.3
20260504183243 20 0 3.2 6.4 0.00 0.00 0.00 31 1010.4
20260504182741 20 70 1.6 11.3 0.00 0.00 0.00 32 1010.6
20260504182238 20 327 1.6 4.8 0.00 0.00 0.00 33 1010.6
20260504181736 20 143 3.2 16.1 0.00 0.00 0.00 32 1010.7
20260504181232 20 114 6.4 9.7 0.00 0.00 0.00 30 1010.6
20260504180732 20 145 3.2 11.3 0.00 0.00 0.00 31 1010.7
20260504180231 20 81 1.6 11.3 0.00 0.00 0.00 33 1010.8
20260504175727 20 144 3.2 6.4 0.00 0.00 0.00 31 1010.8
20260504175223 20 103 0.0 12.9 0.00 0.00 0.00 29 1010.6
20260504174722 20 43 1.6 9.7 0.00 0.00 0.00 30 1011.0
20260504174220 20 97 1.6 9.7 0.00 0.00 0.00 33 1010.8
20260504173716 20 71 1.6 17.7 0.00 0.00 0.00 29 1010.9
20260504173213 20 117 3.2 9.7 0.00 0.00 0.00 30 1010.9
20260504172709 20 108 1.6 3.2 0.00 0.00 0.00 30 1011.0
20260504172206 20 86 1.6 9.7 0.00 0.00 0.00 29 1011.0
20260504171702 20 315 4.8 4.8 0.00 0.00 0.00 31 1011.1
20260504171200 20 111 0.0 9.7 0.00 0.00 0.00 31 1010.9
20260504170656 20 27 0.0 4.8 0.00 0.00 0.00 32 1011.1
20260504170154 20 337 4.8 6.4 0.00 0.00 0.00 30 1011.0
20260504160112 20 77 0.0 4.8 0.00 0.00 0.00 34 1011.6
20260504151045 19 8 0.0 6.4 0.00 0.00 0.00 33 1011.9
20260504150542 19 3 4.8 12.9 0.00 0.00 0.00 34 1011.8
20260504141008 17 100 0.0 9.7 0.00 0.00 0.00 37 1012.5
20260504140505 17 113 3.2 4.8 0.00 0.00 0.00 38 1012.7
20260504130429 15 30 1.6 1.6 0.00 0.00 0.00 43 1012.9
20260504110317 7 137 3.2 3.2 0.00 0.00 0.00 67 1013.2
20260504100234 2 96 0.0 0.0 0.00 0.00 0.00 86 1013.0
20260504081628 3 87 0.0 0.0 0.00 0.00 0.00 86 1012.5
20260504081123 3 87 0.0 0.0 0.00 0.00 0.00 87 1012.6
20260504080620 3 87 0.0 0.0 0.00 0.00 0.00 87 1012.6
20260504080117 3 78 0.0 0.0 0.00 0.00 0.00 86 1012.6
20260504050433 2 80 0.0 0.0 0.00 0.00 0.00 83 1012.6
20260504045930 2 80 0.0 0.0 0.00 0.00 0.00 84 1012.5
20260504045425 2 80 0.0 0.0 0.00 0.00 0.00 85 1012.7
20260504044916 2 80 0.0 0.0 0.00 0.00 0.00 86 1012.7
20260504044414 2 80 0.0 0.0 0.00 0.00 0.00 86 1012.7
20260504043912 2 80 0.0 0.0 0.00 0.00 0.00 86 1012.6
20260504043408 2 80 0.0 0.0 0.00 0.00 0.00 85 1012.6
20260504042906 2 80 0.0 0.0 0.00 0.00 0.00 84 1012.6
20260504042402 2 80 0.0 0.0 0.00 0.00 0.00 84 1012.4
20260504041859 2 80 0.0 0.0 0.00 0.00 0.00 84 1012.4
20260504041355 2 80 0.0 0.0 0.00 0.00 0.00 83 1012.5
20260504040851 2 80 0.0 0.0 0.00 0.00 0.00 83 1012.6
20260504040349 2 76 0.0 0.0 0.00 0.00 0.00 83 1012.4
20260504035844 2 76 0.0 0.0 0.00 0.00 0.00 83 1012.3
20260504035342 2 75 0.0 0.0 0.00 0.00 0.00 82 1012.5
20260504034839 2 75 0.0 0.0 0.00 0.00 0.00 81 1012.3
20260504034336 2 75 0.0 0.0 0.00 0.00 0.00 81 1012.5
20260504033833 2 75 0.0 0.0 0.00 0.00 0.00 79 1012.3
20260504033331 3 75 0.0 0.0 0.00 0.00 0.00 78 1012.2
20260504032827 3 75 0.0 0.0 0.00 0.00 0.00 77 1012.2
20260504032325 3 75 0.0 0.0 0.00 0.00 0.00 76 1012.2
20260504031821 3 75 0.0 0.0 0.00 0.00 0.00 76 1012.1
20260504031319 3 72 0.0 0.0 0.00 0.00 0.00 77 1012.3
20260504030815 3 73 0.0 0.0 0.00 0.00 0.00 77 1012.0
20260504030313 3 73 0.0 0.0 0.00 0.00 0.00 75 1012.1
20260504025808 3 78 0.0 0.0 0.00 0.00 0.00 75 1012.2
20260504025306 3 77 0.0 0.0 0.00 0.00 0.00 74 1012.0
20260504024802 3 74 0.0 0.0 0.00 0.00 0.00 75 1012.0
20260504024258 3 74 0.0 0.0 0.00 0.00 0.00 76 1012.1
20260504023755 3 74 0.0 0.0 0.00 0.00 0.00 76 1012.1
20260504023252 3 72 0.0 0.0 0.00 0.00 0.00 77 1011.9
20260504022748 3 72 0.0 1.6 0.00 0.00 0.00 77 1011.9
20260504022244 3 95 0.0 0.0 0.00 0.00 0.00 76 1011.9
20260504021741 3 95 0.0 0.0 0.00 0.00 0.00 75 1011.9
20260504021239 3 95 0.0 0.0 0.00 0.00 0.00 75 1011.9
20260504020735 4 90 0.0 0.0 0.00 0.00 0.00 73 1011.9
20260504020232 4 90 0.0 0.0 0.00 0.00 0.00 73 1011.9
20260504015728 4 90 0.0 0.0 0.00 0.00 0.00 72 1011.8
20260504015225 5 90 0.0 0.0 0.00 0.00 0.00 69 1012.0
20260504014720 5 90 0.0 0.0 0.00 0.00 0.00 69 1011.8
20260504014217 5 90 0.0 0.0 0.00 0.00 0.00 67 1011.7
20260504013715 5 90 0.0 0.0 0.00 0.00 0.00 68 1011.8
20260504013212 5 90 0.0 0.0 0.00 0.00 0.00 68 1011.5
20260504012709 5 90 0.0 0.0 0.00 0.00 0.00 68 1011.5